Bei uns kannst du mitfliegen! Besuche uns und lerne uns kennen - als Gast, Pilot oder jemand der es werden möchte.

Kölner Klub für Luftsport e.V.

KKFL.de

Ausbildung – Fliegen – Abenteuer

Ausbildung im KKFL

Ausbildung

Fliegen lernen im Verein
Der KKFL.de bietet eine effiziente, schnelle Ausbildung zur Pivatpilotenlizenz (PPL) in verschiedenen Ausprägungen an. Nach der Ausbildung können diverse Ergänzungen vom Verstellpropeller bis hin zu Nachtflug oder das Fliegen nach Instrumentenflugregeln (IFR) angeschlossen werden.
Fliegen im Verein ist günstig!

Unsere Flotte

Cessna 172 S

D-EOCD
Die Cessna ist als schnelle Schul- und Reisemaschine gleichsam beliebt. Unsere vereins-eigene Flotte sorgt für Abwechlung bei den Piloten und unsere Werft senkt Kosten. In der Ausbildung dürfen Schüler über 'ihre Maschine' mit entscheiden.

Cessna 172 R

D-EFPB

Piper PA 28 II

D-EFPA

Aquila A210

D-EAQJ

Piper PA 28 II

D-ELFF

Flugplatz Hangelar


[Quelle: ADDS]
METAR
EDDK 141250Z 13007KT 100V160 9999 FEW020 09/02 Q1002 NOSIG =
EDDK 141100Z 1412/1518 12010KT CAVOK BECMG 1416/1419 VRB03KT BECMG 1506/1509 13005KT
TAF
EDDK 141100Z 1412/1518 12010KT CAVOK BECMG 1416/1419 VRB03KT BECMG 1506/1509 13005KT =
SR / SS: 06:44 / 15:46 UTC (EDKB 2019-11-14)

Du willst fliegen?

Während unserer Bürozeiten und auch dazwischen sind wir für deine Fragen da.
Bitte kontaktiere den Verein unter den angegebenen Adressen.
© 2019 - Kölner Klub für Luftsport e.V.
Bonn / Hangelar - EDKB - Germany
Cookies erleichtern die Bereitstellung unserer Dienste. Mit der Nutzung unserer Dienste erklären Sie sich damit einverstanden, dass wir Cookies verwenden.
Datenschutzerklärung / Informationen Ok Ablehnen